Location: Newark
(55.7167°N, 12.5667°E)
Time: 23:34:24
(UTC+00:00)

N. Korean satellite - Pass Details

Date: 18 December 2019
Orbit: 454 x 508 km, 97.2° (Epoch: 20 January)

Event Time Altitude Azimuth Distance (km) Brightness Sun altitude
Rises 06:14:09 0° 6° (N) 2,539 10.0 -10.2°
Reaches altitude 10° 06:16:27 10° 354° (N) 1,646 8.9 -9.9°
Maximum altitude 06:19:24 25° 297° (WNW) 972 7.5 -9.5°
Drops below altitude 10° 06:22:18 10° 240° (WSW) 1,614 8.9 -9.2°
Sets 06:24:32 0° 227° (SW) 2,477 10.0 -8.9°
